Regional Weather Roundup
Issued by NWS

Home | Current Version | Previous Version | Text Only | Print | Product List | Glossary Off
Versions: 1 2 3 4 5 6 7 8 9 10 11 12 13 14 15 16 17 18 19 20 21 22 23 24 25 26 27 28 29 30 31 32 33 34 35 36 37 38 39 40 41 42 43 44 45 46 47 48 49 50

301
ASUS44 KJAN 010210
RWRMS

MISSISSIPPI HOURLY WEATHER ROUNDUP
NATIONAL WEATHER SERVICE JACKSON MS
900 PM CDT SUN AUG 31 2014

NOTE: "FAIR: INDICATES FEW OR NO CLOUDS BELOW 12,000 FEET WITH NO
SIGNIFICANT WEATHER AND/OR OBSTRUCTIONS TO VISIBILITY.

MSZ001>002-007>008-010>013-018>021-025>028-034>036-010300-
NORTHWEST MISSISSIPPI

CITY           SKY/WX    TMP DP  RH WIND       PRES   REMARKS
CLARKSDALE     CLOUDY    77  77 100 CALM      30.02S
CLEVELAND      MOCLDY    79  76  92 S5        30.00S
GREENWOOD      MOCLDY    79  76  90 CALM      30.03S
GREENVILLE     MOCLDY    79  75  87 SE6       30.00S
GRENADA        FAIR      77  73  88 S5        30.04R
OLIVE BRANCH   CLEAR     75  75 100 S8        30.01F
OXFORD         FAIR      77  72  83 CALM      30.05S
TUNICA         CLEAR     77  72  83 S7        30.01S
$$

MSZ003>006-009-014>017-022>024-029>033-037>039-010300-
NORTHEAST MISSISSIPPI

CITY           SKY/WX    TMP DP  RH WIND       PRES   REMARKS
BELMONT        FAIR      76  75  95 S3        30.07R
COLUMBUS AFB   CLOUDY    78  74  85 SE2       30.05S
CORINTH        FAIR      77  72  83 S6        30.04R
GOLDN TRIANGLE CLOUDY    79  72  78 S3        30.06S
STARKVILLE     FAIR      77  73  88 CALM      30.05S
TUPELO         MOCLDY    79  75  87 S7        30.05R
$$

MSZ040-058-010300-
CENTRAL MISSISSIPPI

CITY           SKY/WX    TMP DP  RH WIND       PRES   REMARKS
JACKSON INTL   CLOUDY    80  77  90 SE3       30.04S
JACKSON HAWKNS MOCLDY    81  76  84 SE5       30.04S
MERIDIAN KEY   MOCLDY    79  75  87 S3        30.06S
MERIDIAN NAS   MOCLDY    79  75  87 CALM      30.06S
RAYMOND        FAIR      77  73  88 CALM      30.04R HAZE
VICKSBURG      PTCLDY    78  76  93 SE3       30.02S
$$

MSZ059>079-010300-
SOUTH MISSISSIPPI

CITY           SKY/WX    TMP DP  RH WIND       PRES   REMARKS
BROOKHAVEN     FAIR      77  73  88 CALM      30.07S
HATTIESBURG    PTCLDY    81  72  74 SE3       30.07R
MCCOMB         PTCLDY    76  72  87 SE3       30.06R
NATCHEZ        CLOUDY    81  75  83 SE7       30.03S
PINE BELT      PTCLDY    81  70  69 S5        30.08S
$$

MSZ080>082-010300-
COASTAL MISSISSIPPI

CITY           SKY/WX    TMP DP  RH WIND       PRES   REMARKS
BAY ST LOUIS   CLEAR    N/A N/A N/A SE3       30.06R
BILOXI         PTCLDY    85  76  74 S7        30.07R HX  93
PASCAGOULA     PTCLDY    77  75  93 CALM      30.07S
GULFPORT       PTCLDY    84  75  74 S6        30.06R HX  92
$$



USA.gov is the U.S. government's official web portal to all federal, state and local government web resources and services.